JPV Marikina F.C. - Philippines Football League
77
sp_team-template-default,single,single-sp_team,postid-77,sportspress,sportspress-page,sp-show-image,ajax_fade,page_not_loaded,boxed,,qode-title-hidden,qode_grid_1200,footer_responsive_adv,hide_top_bar_on_mobile_header,qode-theme-ver-11.1,qode-theme-philippines football league,wpb-js-composer js-comp-ver-5.1.1,vc_responsive

JPV Marikina F.C.

Name: JPV Marikina FC
City/Province: Marikina City
Venue: Marikina Sports Complex
Head Coach: Dan Padernal

NameJob
Kyo NagamiGeneral Manager
Dan PadernalHead Coach
Frank MuescanAssistant Coach
Joel VillarinoAssistant Coach
Michael Jayson AgbayaniAssistant Coach
Leona YapGeneral Coordinator
Pia HequibalPhysiotherapist
Hideki SatoMedia Content Manager
Jomar De JesusKitman
DateMatchTime/Results
2017-05-07 16:00:14May 7, 2017 JPV MARIKINA FC vs GLOBAL CEBU FC1 - 2
2017-05-14 16:00:53May 14, 2017 DAVAO AGUILAS FC vs JPV MARIKINA FC2 - 3
2017-05-20 16:00:31May 20, 2017 JPV MARIKINA FC vs FC MERALCO MANILA0 - 1
2017-05-27 16:00:30May 27, 2017 JPV MARIKINA FC vs KAYA FC-MAKATI0 - 3
2017-05-31 16:00:07May 31, 2017 STALLION LAGUNA FC vs JPV MARIKINA FC0 - 4
2017-06-04 16:00:50June 4, 2017 JPV MARIKINA FC vs ILOCOS UNITED FC2 - 0
2017-06-17 16:00:17June 17, 2017 JPV MARIKINA FC vs CERES NEGROS FC2 - 1
2017-06-21 19:00:56June 21, 2017 ILOCOS UNITED FC vs JPV MARIKINA FC1 - 2
2017-06-25 19:00:59June 25, 2017 GLOBAL CEBU FC vs JPV MARIKINA FC1 - 2
2017-07-08 19:00:15July 8, 2017 FC MERALCO MANILA vs JPV MARIKINA FC2 - 1
2017-07-16 16:00:03July 16, 2017 KAYA FC-MAKATI vs JPV MARIKINA FC2 - 0
2017-07-19 16:00:38July 19, 2017 JPV MARIKINA FC vs STALLION LAGUNA FC0 - 2
2017-07-23 16:00:43July 23, 2017 JPV MARIKINA FC vs STALLION LAGUNA FC1 - 2
2017-08-09 16:00:31August 9, 2017 ILOCOS UNITED FC vs JPV MARIKINA FC2 - 2
2017-08-13 16:00:20August 13, 2017 JPV MARIKINA FC vs GLOBAL CEBU FC5 - 2
2017-08-16 16:00:55August 16, 2017 KAYA FC-MAKATI vs JPV MARIKINA2 - 2
2017-08-23 16:00:39August 23, 2017 JPV MARIKINA FC vs FC MERALCO MANILA1 - 1
2017-09-10 16:00:53September 10, 2017 JPV MARIKINA FC vs KAYA FC-MAKATI1 - 0
2017-09-16 16:00:28September 16, 2017 STALLION LAGUNA FC vs JPV MARIKINA FC1 - 0
2017-09-23 16:00:09September 23, 2017 JPV MARIKINA FC vs ILOCOS UNITED FC1 - 2
2017-10-15 19:00:21October 15, 2017 GLOBAL CEBU FC vs JPV MARIKINA FC2 - 1
2017-10-18 19:00:44October 18, 2017 CERES NEGROS FC vs JPV MARIKINA FC2 - 2
2017-10-22 16:00:03October 22, 2017 JPV MARIKINA FC vs DAVAO AGUILAS FC0 - 3
2017-10-28 16:00:33October 28, 2017 CERES NEGROS FC vs JPV MARIKINA FC5 - 0
2017-10-31 16:00:47October 31, 2017 FC MERALCO MANILA vs JPV MARIKINA1 - 0
2017-11-08 16:00:17November 8, 2017 JPV MARIKINA FC vs CERES NEGROS FC2 - 2
2017-11-21 16:00:18November 21, 2017 JPV MARIKINA FC vs DAVAO AGUILAS FC6 - 3
2017-11-25 16:00:21November 25, 2017 DAVAO AGUILAS FC vs JPV MARIKINA FC1 - 1
2018-03-03 19:00:00March 3, 2018 JPV Marikina F.C. vs Global Cebu F.C.2 - 1
2018-03-11 16:00:00March 11, 2018 Stallion Laguna F.C. vs JPV Marikina F.C.1 - 2

Tweets

Tweets